This is the latest recevied weather packets stored in our database for station/object K7AZM. If no packets are shown the sender has not sent any weather packets the latest 10 day(s).
| Time | Temp. | Humidity | Pressure | Rain* | Wind** | Luminosity | Snow |
|---|---|---|---|---|---|---|---|
| 1778030723 | 23.33° C | 26% | 1010.8 hPa | 0 mm | - | - | - |
| 1778030123 | 23.33° C | 26% | 1010.7 hPa | 0 mm | - | - | - |
| 1778029223 | 23.89° C | 25% | 1010.7 hPa | 0 mm | - | - | - |
| 1778028923 | 23.89° C | 24% | 1010.7 hPa | 0 mm | - | - | - |
| 1778027123 | 23.89° C | 24% | 1010.5 hPa | 0 mm | - | - | - |
| 1778026224 | 23.89° C | 24% | 1010.5 hPa | 0 mm | - | - | - |
| 1778025023 | 24.44° C | 24% | 1010.4 hPa | 0 mm | - | - | - |
| 1778024123 | 23.89° C | 25% | 1010.4 hPa | 0 mm | - | - | - |
| 1778023823 | 23.89° C | 25% | 1010.4 hPa | 0 mm | - | - | - |
| 1778019923 | 23.89° C | 27% | 1011.1 hPa | 0 mm | - | - | - |
| 1778019623 | 23.89° C | 26% | 1011.1 hPa | 0 mm | - | - | - |
| 1778019023 | 23.89° C | 27% | 1011.2 hPa | 0 mm | - | - | - |
| 1778013924 | 23.89° C | 28% | 1012 hPa | 0 mm | - | - | - |
| 1778013623 | 23.89° C | 28% | 1012.1 hPa | 0 mm | - | - | - |
| 1778012145 | 23.33° C | 31% | 1012.2 hPa | 0 mm | - | - | - |
| 1778011543 | 23.33° C | 32% | 1012.3 hPa | 0 mm | - | - | - |
| 1778011223 | 23.33° C | 32% | 1012.4 hPa | 0 mm | - | - | - |
| 1778007923 | 23.33° C | 36% | 1012.9 hPa | 0 mm | - | - | - |
| 1778006423 | 22.78° C | 38% | 1013.1 hPa | 0 mm | - | - | - |
| 1778005266 | 21.67° C | 40% | 1013.1 hPa | 0 mm | - | - | - |
| 1778004925 | 22.22° C | 40% | 1013.2 hPa | 0 mm | - | - | - |
| 1778002823 | 21.11° C | 40% | 1013 hPa | 0 mm | - | - | - |
| 1778001925 | 20.56° C | 42% | 1013 hPa | 0 mm | - | - | - |
| 1778001323 | 20.56° C | 43% | 1013 hPa | 0 mm | - | - | - |
| 1777998644 | 20.56° C | 46% | 1013 hPa | 0 mm | - | - | - |
* Rain latest hour (hover to see other rain measurements)
** Current wind speed in m/s (hover to see current wind gust speed)